Flag for United Kingdom Weather past 2 weeks in Bradford, England, United Kingdom

Now
57 °F

Passing clouds.


Feels Like: 54 °F
Forecast: 41 / 64 °F
Wind: 15 mph from West

Location: Leeds And Bradford

Current Time: Jun 3, 2015 at 7:04:37 PM

Latest Report: Jun 3, 2015 at 6:20 PM


Visibility: N/A

Pressure: 30.21 "Hg

Humidity: 51%

Dew point: 39 °F

Location of BradfordLocation

Historic Weather in Bradford — Graph

°F

Bradford temperature yesterday

Maximum temperature yesterday: 59 °F (at 1:50 PM)
Minimum temperature yesterday: 45 °F (at 12:20 AM)
Average temperature yesterday: 51 °F

Past Weeks' High & Low Weather Summary

 TemperatureHumidityPressure
High61 °F (May 22, 1:20 PM)100% (May 20, 10:50 AM)30.30 "Hg (May 20, 10:50 AM)
Low39 °F (May 30, 3:50 AM)45% (Jun 3, 3:50 PM)29.30 "Hg (Jun 1, 10:20 PM)
Average50 °F78%29.93 "Hg
* Reported May 19 5:20 PM — Jun 3 5:50 PM, Bradford, Weather by CustomWeather, © 2015

Note: Actual official high and low records may vary slightly from our data, if they occured in-between our weather recording intervals... More about our weather records

Advertising

Bradford weather history for previous 24 hours

 ConditionsComfort  
Time TempWeatherWind HumidityBarometerVisibility
5:50 PM
Wed, Jun 3
57 °FPassing clouds.15 mph51%30.21 "HgN/A
5:20 PM57 °FPassing clouds.15 mph51%30.21 "HgN/A
4:50 PM57 °FPassing clouds.18 mph51%30.21 "HgN/A
4:20 PM55 °FPassing clouds.14 mph51%30.21 "HgN/A
3:50 PM59 °FPassing clouds.16 mph45%30.21 "HgN/A
3:20 PM57 °FScattered clouds.15 mph48%30.18 "HgN/A
2:50 PM57 °FScattered clouds.15 mph55%30.18 "HgN/A
2:20 PM55 °FScattered clouds.14 mph59%30.18 "HgN/A
1:50 PM55 °FScattered clouds.16 mph59%30.15 "HgN/A
1:20 PM55 °FScattered clouds.14 mph59%30.15 "HgN/A
12:50 PM54 °FScattered clouds.16 mph63%30.12 "HgN/A
12:20 PM55 °FScattered clouds.16 mph59%30.12 "HgN/A
11:50 AM55 °FScattered clouds.17 mph59%30.09 "HgN/A
11:20 AM54 °FScattered clouds.16 mph63%30.09 "HgN/A
10:50 AM54 °FScattered clouds.17 mph58%30.07 "HgN/A
10:20 AM55 °FScattered clouds.17 mph55%30.07 "HgN/A
9:50 AM52 °FScattered clouds.10 mph67%30.04 "HgN/A
9:20 AM54 °FScattered clouds.18 mph63%30.01 "HgN/A
8:50 AM52 °FScattered clouds.17 mph67%30.01 "HgN/A
8:20 AM52 °FScattered clouds.21 mph67%29.98 "HgN/A
7:50 AM50 °FScattered clouds.15 mph76%29.95 "HgN/A
7:20 AM50 °FPassing clouds.13 mph76%29.95 "HgN/A
6:50 AM48 °FPassing clouds.15 mph82%29.92 "HgN/A
6:20 AM48 °FPassing clouds.14 mph82%29.89 "HgN/A
5:50 AM46 °FPassing clouds.9 mph87%29.89 "HgN/A
5:20 AM46 °FClear.7 mph87%29.86 "HgN/A
4:20 AM46 °FPassing clouds.9 mph87%29.83 "HgN/A
3:50 AM46 °FPassing clouds.7 mph87%29.80 "HgN/A
3:20 AM46 °FPassing clouds.8 mph87%29.80 "HgN/A
2:50 AM46 °FPassing clouds.8 mph87%29.77 "HgN/A
2:20 AM48 °FPassing clouds.13 mph82%29.77 "HgN/A
1:50 AM48 °FPassing clouds.12 mph82%29.74 "HgN/A
1:20 AM48 °FPassing clouds.15 mph82%29.74 "HgN/A
12:50 AM48 °FClear.14 mph87%29.71 "Hg10 mi
12:20 AM48 °FClear.16 mph87%29.71 "Hg10 mi
11:50 PM
Tue, Jun 2
50 °FClear.18 mph76%29.68 "Hg10 mi
11:20 PM50 °FPassing clouds.16 mph76%29.68 "HgN/A
10:20 PM50 °FPassing clouds.18 mph76%29.65 "HgN/A
9:50 PM52 °FPassing clouds.21 mph77%29.62 "HgN/A
9:20 PM52 °FScattered clouds.18 mph72%29.62 "HgN/A
8:50 PM54 °FScattered showers. Passing clouds.23 mph63%29.59 "HgN/A
8:20 PM54 °FScattered showers. Scattered clouds.23 mph67%29.56 "HgN/A
7:50 PM55 °FScattered clouds.28 mph63%29.56 "HgN/A
7:20 PM57 °FScattered clouds.30 mph59%29.53 "HgN/A
Weather by CustomWeather, © 2015

See weather overviewHow to use our weather pages